Location: Unspecified
(0.0000°N, 0.0000°E)
Time: 03:53:09
(UTC+01:00)

Iridium 39 - Visible Passes

Search period start: 21 February 2018 00:00
Search period end: 03 March 2018 00:00
Orbit: 725 x 751 km, 86.4° (Epoch: 19 February)

Date Brightness Start Highest point End Pass type
(mag) Time Alt. Az. Time Alt. Az. Time Alt. Az.
21 Feb 6.5 20:59:44 44° SSE 20:59:44 44° SSE 21:03:07 10° S visible
22 Feb 6.9 20:12:16 22° ENE 20:13:04 23° E 20:16:55 10° SE visible
22 Feb 8.4 21:51:39 17° WNW 21:52:39 17° W 21:55:53 10° SW visible
23 Feb 6.4 21:02:42 10° NNW 21:07:32 57° W 21:12:23 10° SSW visible
24 Feb 6.2 20:17:47 10° NNE 20:22:25 42° E 20:27:04 10° SSE visible
25 Feb 7.5 19:35:08 10° ENE 19:37:19 13° E 19:39:30 10° ESE visible
25 Feb 7.6 21:12:36 10° NNW 21:16:54 30° W 21:21:13 10° SSW visible
26 Feb 5.7 20:26:51 10° N 20:31:47 80° E 20:36:44 10° S visible
27 Feb 6.9 19:42:44 10° NE 19:46:41 24° E 19:50:36 10° SE visible
27 Feb 8.6 21:23:11 10° NW 21:26:16 17° W 21:29:21 10° SW visible
28 Feb 6.6 20:36:21 10° NNW 20:41:08 54° W 20:45:58 10° SSW visible
01 Mar 6.2 19:51:21 10° NNE 19:56:02 44° E 20:00:43 10° SSE visible
02 Mar 7.9 20:46:17 10° NNW 20:50:30 29° W 20:54:45 10° SSW visible
